FW8366 Weather Reports


Display with metric or nautical units.
time (UTC)temp
F
wind
direction
speed
MPH
gust
MPH
rain 1hr
in
rain 24hr
in
rain mn
in
humidity
%
barometer
mb
20260506211111 77 13 2.0 6.0 0.00 0.00 0.00 65 1013.0
20260506210608 77 66 4.0 8.0 0.00 0.00 0.00 65 1013.0
20260506210104 78 329 5.0 8.0 0.00 0.00 0.00 64 1013.0
20260506205601 79 27 4.0 7.0 0.00 0.00 0.00 63 1013.0
20260506205056 79 334 6.0 9.0 0.00 0.00 0.00 63 1013.0
20260506204555 78 40 6.0 8.0 0.00 0.00 0.00 66 1013.0
20260506204051 77 357 2.0 8.0 0.00 0.00 0.00 68 1013.0
20260506203550 78 19 2.0 6.0 0.00 0.00 0.00 68 1013.0
20260506203046 79 313 4.0 6.0 0.00 0.00 0.00 65 1013.0
20260506202544 79 56 4.0 7.0 0.00 0.00 0.00 66 1013.0
20260506202040 79 313 3.0 7.0 0.00 0.00 0.00 66 1013.0
20260506201538 78 247 2.0 4.0 0.00 0.00 0.00 69 1013.0
20260506201034 78 359 2.0 4.0 0.00 0.00 0.00 70 1013.0
20260506200530 78 249 2.0 4.0 0.00 0.00 0.00 70 1013.0
20260506200027 77 87 2.0 6.0 0.00 0.00 0.00 74 1013.0
20260506195524 77 78 2.0 6.0 0.00 0.00 0.00 74 1013.0
20260506195020 79 22 3.0 6.0 0.00 0.00 0.00 71 1013.0
20260506194518 80 39 2.0 4.0 0.00 0.00 0.00 70 1013.0
20260506194014 81 82 0.0 3.0 0.00 0.00 0.00 69 1013.0
20260506193512 81 105 1.0 2.0 0.00 0.00 0.00 68 1013.0
20260506193008 81 51 1.0 2.0 0.00 0.00 0.00 69 1013.0
20260506192505 82 50 1.0 3.0 0.00 0.00 0.00 67 1013.0
20260506192001 82 120 0.0 1.0 0.00 0.00 0.00 67 1013.0
20260506191458 82 41 1.0 2.0 0.00 0.00 0.00 67 1013.0
20260506190954 82 48 2.0 3.0 0.00 0.00 0.00 66 1013.0
20260506190452 82 258 1.0 2.0 0.00 0.00 0.00 65 1013.0
20260506185948 83 99 0.0 1.0 0.00 0.00 0.00 67 1013.0
20260506185445 84 17 1.0 2.0 0.00 0.00 0.00 63 1013.0
20260506184942 85 265 1.0 2.0 0.00 0.00 0.00 60 1013.0
20260506184439 85 75 0.0 2.0 0.00 0.00 0.00 62 1013.0
20260506183936 86 32 2.0 6.0 0.00 0.00 0.00 62 1013.3
20260506183432 86 243 2.0 2.0 0.00 0.00 0.00 62 1013.3
20260506182929 84 177 1.0 2.0 0.00 0.00 0.00 65 1013.3
20260506182426 83 114 0.0 2.0 0.00 0.00 0.00 68 1013.3
20260506181924 83 143 0.0 2.0 0.00 0.00 0.00 68 1013.3
20260506181422 83 242 1.0 2.0 0.00 0.00 0.00 64 1013.3
20260506180918 84 23 1.0 2.0 0.00 0.00 0.00 65 1013.3
20260506180414 84 99 0.0 1.0 0.00 0.00 0.00 68 1013.6
20260506175911 83 180 1.0 2.0 0.00 0.00 0.00 65 1013.6
20260506175408 83 67 3.0 4.0 0.00 0.00 0.00 64 1013.6
20260506174905 82 314 0.0 2.0 0.00 0.00 0.00 71 1013.6
20260506174402 81 191 1.0 3.0 0.00 0.00 0.00 66 1013.6
20260506173900 81 16 0.0 2.0 0.00 0.00 0.00 68 1013.6
20260506173356 81 99 1.0 4.0 0.00 0.00 0.00 69 1013.6
20260506172853 81 35 1.0 3.0 0.00 0.00 0.00 69 1014.1
20260506172349 81 51 3.0 4.0 0.00 0.00 0.00 68 1013.3
20260506171847 79 91 0.0 1.0 0.00 0.00 0.00 72 1013.6
20260506171344 76 48 0.0 2.0 0.00 0.00 0.00 78 1013.6
20260506170842 76 53 1.0 4.0 0.00 0.00 0.00 76 1013.6
20260506170338 76 64 1.0 3.0 0.00 0.00 0.00 76 1013.6
20260506165837 75 38 2.0 7.0 0.00 0.00 0.00 76 1013.6
20260506165335 73 7 2.0 4.0 0.00 0.00 0.00 79 1014.1
20260506164831 73 30 2.0 4.0 0.00 0.00 0.00 80 1013.6
20260506164328 73 113 1.0 4.0 0.00 0.00 0.00 80 1013.6
20260506163825 73 35 3.0 6.0 0.00 0.00 0.00 79 1013.6
20260506163320 76 55 4.0 4.0 0.00 0.00 0.00 79 1013.6
20260506162815 77 46 0.0 1.0 0.00 0.00 0.00 83 1013.6
20260506162314 77 102 0.0 0.0 0.00 0.00 0.00 83 1013.3
20260506161811 77 103 1.0 1.0 0.00 0.00 0.00 82 1013.6
20260506161308 78 86 0.0 1.0 0.00 0.00 0.00 81 1013.6
20260506160806 78 103 0.0 1.0 0.00 0.00 0.00 81 1013.6
20260506160302 79 148 1.0 3.0 0.00 0.00 0.00 79 1013.3
20260506155801 79 90 1.0 2.0 0.00 0.00 0.00 81 1013.3
20260506155257 78 99 0.0 1.0 0.00 0.00 0.00 82 1013.3
20260506153410 77 145 0.0 1.0 0.00 0.00 0.00 86 1013.3
20260506152907 77 21 2.0 2.0 0.00 0.00 0.00 86 1013.3
20260506152404 77 122 0.0 1.0 0.00 0.00 0.00 87 1013.3
20260506151903 76 107 0.0 1.0 0.00 0.00 0.00 88 1013.0
20260506151359 76 110 0.0 1.0 0.00 0.00 0.00 89 1013.0
20260506150857 76 173 1.0 1.0 0.00 0.00 0.00 89 1013.0
20260506150353 75 137 0.0 1.0 0.00 0.00 0.00 91 1013.0
20260506145849 75 104 0.0 1.0 0.00 0.00 0.00 92 1012.6
20260506145345 74 133 0.0 1.0 0.00 0.00 0.00 93 1013.0
20260506144843 74 124 0.0 0.0 0.00 0.00 0.00 94 1012.6
20260506144340 74 106 0.0 0.0 0.00 0.00 0.00 94 1012.6
20260506143838 73 123 0.0 0.0 0.00 0.00 0.00 95 1012.6
20260506143335 73 107 0.0 0.0 0.00 0.00 0.00 94 1012.6
20260506142833 73 80 0.0 0.0 0.00 0.00 0.00 94 1012.6
20260506142331 73 68 0.0 1.0 0.00 0.00 0.00 94 1013.0
20260506141829 73 82 0.0 2.0 0.00 0.00 0.00 94 1013.0
20260506141327 73 85 1.0 2.0 0.00 0.00 0.00 94 1013.0
20260506140825 73 64 1.0 2.0 0.00 0.00 0.00 94 1012.6
20260506140321 73 83 0.0 1.0 0.00 0.00 0.00 94 1012.6
20260506135818 73 107 0.0 0.0 0.00 0.00 0.00 95 1012.6
20260506135314 73 109 0.0 1.0 0.00 0.00 0.00 95 1012.3
20260506134811 73 120 0.0 0.0 0.00 0.00 0.00 95 1011.9
20260506134307 73 126 0.0 0.0 0.00 0.00 0.00 96 1011.9
20260506133804 73 123 0.0 1.0 0.00 0.00 0.00 96 1011.6
20260506133301 73 120 0.0 1.0 0.00 0.00 0.00 96 1011.6
20260506132758 73 160 0.0 1.0 0.00 0.00 0.00 96 1011.2
20260506132255 73 134 0.0 0.0 0.00 0.00 0.00 96 1011.2
20260506131754 72 136 0.0 1.0 0.00 0.00 0.00 97 1011.2
20260506131249 72 127 0.0 1.0 0.00 0.00 0.00 97 1011.2
20260506130746 72 138 0.0 1.0 0.00 0.00 0.00 97 1011.6
20260506130243 72 133 0.0 0.0 0.00 0.00 0.00 97 1011.2
20260506125741 72 65 0.0 1.0 0.00 0.00 0.00 97 1011.2
20260506125239 72 126 0.0 0.0 0.00 0.00 0.00 97 1010.8
20260506124737 72 165 1.0 2.0 0.00 0.00 0.00 97 1011.2
20260506124234 72 134 0.0 1.0 0.00 0.00 0.00 97 1011.2
20260506123731 72 123 0.0 0.0 0.00 0.00 0.00 97 1010.8
20260506123230 72 137 0.0 0.0 0.00 0.00 0.00 97 1010.8
20260506122726 72 140 0.0 1.0 0.00 0.00 0.00 97 1010.8
20260506122224 72 143 0.0 0.0 0.00 0.00 0.00 97 1010.8
20260506121722 72 122 0.0 0.0 0.00 0.00 0.00 97 1010.5
20260506121218 72 125 0.0 0.0 0.00 0.00 0.00 97 1010.8
20260506120716 72 321 0.0 1.0 0.00 0.00 0.00 97 1010.8
20260506120213 72 139 0.0 1.0 0.00 0.00 0.00 97 1010.5
20260506115711 72 186 0.0 1.0 0.00 0.00 0.00 97 1010.5
20260506115209 72 129 0.0 0.0 0.00 0.00 0.00 96 1010.8
20260506114706 72 128 0.0 0.0 0.00 0.00 0.00 96 1010.5
20260506114204 72 158 0.0 1.0 0.00 0.00 0.00 96 1010.8
20260506113703 72 125 0.0 0.0 0.00 0.00 0.00 96 1010.8
20260506113200 72 167 1.0 1.0 0.00 0.00 0.00 96 1010.8
20260506112655 72 113 0.0 0.0 0.00 0.00 0.00 96 1010.8
20260506112153 72 111 0.0 0.0 0.00 0.00 0.00 96 1010.8
20260506111650 72 123 0.0 0.0 0.00 0.00 0.00 96 1010.8
20260506111148 72 120 0.0 0.0 0.00 0.00 0.00 96 1011.2
20260506110646 72 133 0.0 1.0 0.00 0.00 0.00 96 1011.2
20260506110143 72 136 0.0 0.0 0.00 0.00 0.00 96 1011.2
20260506105639 72 110 0.0 1.0 0.00 0.00 0.00 96 1011.2
20260506105136 72 132 0.0 1.0 0.00 0.00 0.00 96 1011.2
20260506104634 72 184 0.0 1.0 0.00 0.00 0.00 96 1011.2
20260506104132 72 152 0.0 1.0 0.00 0.00 0.00 96 1010.8
20260506103629 72 166 1.0 2.0 0.00 0.00 0.00 96 1010.8
20260506103125 72 153 0.0 2.0 0.00 0.00 0.00 96 1010.8
20260506102624 72 115 0.0 1.0 0.00 0.00 0.00 96 1010.8
20260506102121 72 221 2.0 3.0 0.00 0.00 0.00 96 1010.8
20260506101617 72 199 0.0 2.0 0.00 0.00 0.00 95 1010.8
20260506101114 72 153 1.0 2.0 0.00 0.00 0.00 95 1010.8
20260506100613 72 286 0.0 3.0 0.00 0.00 0.00 95 1010.8
20260506100110 72 180 2.0 3.0 0.00 0.00 0.00 95 1010.8
20260506095609 72 316 1.0 2.0 0.00 0.00 0.00 95 1010.8
20260506095105 72 74 2.0 4.0 0.00 0.00 0.00 95 1010.8
20260506094603 72 154 1.0 1.0 0.00 0.00 0.00 95 1010.5
20260506094100 72 210 3.0 4.0 0.00 0.00 0.00 94 1010.8
20260506093559 72 103 0.0 2.0 0.00 0.00 0.00 94 1010.8
20260506093055 72 224 3.0 4.0 0.00 0.00 0.00 94 1010.5
20260506092554 72 133 0.0 3.0 0.00 0.00 0.00 94 1010.5
20260506092050 72 157 1.0 6.0 0.00 0.00 0.00 94 1010.5
20260506091548 73 59 0.0 2.0 0.00 0.00 0.00 93 1010.5
20260506091045 73 347 1.0 3.0 0.00 0.00 0.00 93 1010.1
20260506090543 73 204 1.0 4.0 0.00 0.00 0.00 93 1010.1
20260506090039 73 167 3.0 4.0 0.00 0.00 0.00 93 1010.1
20260506085536 73 12 1.0 2.0 0.00 0.00 0.00 93 1010.1
20260506085032 73 132 2.0 4.0 0.00 0.00 0.00 92 1010.1
20260506084530 73 50 1.0 6.0 0.00 0.00 0.00 92 1010.1
20260506084025 73 177 1.0 2.0 0.00 0.00 0.00 92 1010.5
20260506083523 73 140 0.0 1.0 0.00 0.00 0.00 92 1010.1
20260506083020 73 105 0.0 2.0 0.00 0.00 0.00 92 1010.5
20260506082517 73 209 1.0 3.0 0.00 0.00 0.00 92 1010.5
20260506082013 73 153 2.0 3.0 0.00 0.00 0.00 92 1010.1
20260506081511 73 193 0.0 3.0 0.00 0.00 0.00 93 1010.1
20260506081008 73 118 1.0 3.0 0.00 0.00 0.00 93 1010.1
20260506080506 73 127 1.0 3.0 0.00 0.00 0.00 93 1010.1
20260506073449 73 143 0.0 2.0 0.00 0.00 0.00 92 1010.5
20260506072946 73 141 1.0 2.0 0.00 0.00 0.00 92 1010.8
20260506072443 73 246 1.0 3.0 0.00 0.00 0.00 92 1010.5
20260506071941 73 139 0.0 2.0 0.00 0.00 0.00 92 1010.8
20260506071439 73 53 1.0 4.0 0.00 0.00 0.00 92 1010.8
20260506070935 73 104 1.0 4.0 0.00 0.00 0.00 92 1010.8
20260506070432 73 109 1.0 2.0 0.00 0.00 0.00 92 1011.2
20260506062410 74 206 1.0 4.0 0.00 0.00 0.00 90 1011.2
20260506061906 74 75 2.0 3.0 0.00 0.00 0.00 90 1010.8
20260506061402 74 181 2.0 2.0 0.00 0.00 0.00 90 1010.8
20260506060901 74 152 1.0 3.0 0.00 0.00 0.00 90 1011.2
20260506060358 74 12 2.0 3.0 0.00 0.00 0.00 90 1011.2
20260506051330 75 215 1.0 2.0 0.00 0.00 0.00 90 1010.8
20260506050828 75 52 1.0 3.0 0.00 0.00 0.00 90 1011.2
20260506050325 75 137 1.0 1.0 0.00 0.00 0.00 90 1011.2
20260506044815 75 151 0.0 1.0 0.00 0.00 0.00 90 1011.2
20260506044313 75 152 1.0 2.0 0.00 0.00 0.00 90 1010.8
20260506043810 75 125 0.0 1.0 0.00 0.00 0.00 89 1010.8
20260506043308 75 92 0.0 2.0 0.00 0.00 0.00 90 1010.8
20260506042806 75 123 1.0 2.0 0.00 0.00 0.00 90 1010.8
20260506042305 75 119 0.0 1.0 0.00 0.00 0.00 90 1010.8
20260506041803 75 145 0.0 1.0 0.00 0.00 0.00 90 1010.8
20260506041259 75 94 0.0 2.0 0.00 0.00 0.00 90 1010.8
20260506040756 74 83 0.0 2.0 0.00 0.00 0.00 90 1010.5
20260506040254 74 110 0.0 2.0 0.00 0.00 0.00 90 1010.5
20260506035750 74 165 1.0 1.0 0.00 0.00 0.00 89 1010.8
20260506035247 74 131 1.0 1.0 0.00 0.00 0.00 89 1010.5
20260506034744 74 122 0.0 1.0 0.00 0.00 0.00 88 1010.5
20260506034242 74 142 0.0 1.0 0.00 0.00 0.00 88 1010.1
20260506033738 74 121 0.0 1.0 0.00 0.00 0.00 88 1010.5
20260506033236 74 133 0.0 1.0 0.00 0.00 0.00 88 1010.5
20260506032732 74 119 0.0 1.0 0.00 0.00 0.00 87 1010.1
20260506032229 74 126 0.0 0.0 0.00 0.00 0.00 87 1010.1
20260506031726 74 124 0.0 1.0 0.00 0.00 0.00 87 1010.1
20260506031223 75 123 0.0 0.0 0.00 0.00 0.00 87 1010.1
20260506030722 75 107 0.0 0.0 0.00 0.00 0.00 86 1009.8
20260506030219 75 134 0.0 0.0 0.00 0.00 0.00 86 1009.8
20260506025715 75 126 0.0 1.0 0.00 0.00 0.00 86 1009.8
20260506025212 75 121 0.0 0.0 0.00 0.00 0.00 85 1009.8
20260506024709 75 110 0.0 1.0 0.00 0.00 0.00 85 1009.5
20260506024205 75 143 0.0 1.0 0.00 0.00 0.00 84 1009.5
20260506023702 75 133 0.0 1.0 0.00 0.00 0.00 84 1009.8
20260506023159 75 128 0.0 1.0 0.00 0.00 0.00 84 1009.8
20260506022656 75 133 0.0 1.0 0.00 0.00 0.00 83 1009.5
20260506022153 75 150 0.0 1.0 0.00 0.00 0.00 83 1009.5
20260506021651 75 142 0.0 1.0 0.00 0.00 0.00 82 1009.5
20260506021148 76 130 0.0 0.0 0.00 0.00 0.00 82 1009.5
20260506020645 76 124 0.0 0.0 0.00 0.00 0.00 81 1009.5
20260506020143 76 119 0.0 0.0 0.00 0.00 0.00 81 1009.0
20260506015640 76 124 0.0 0.0 0.00 0.00 0.00 80 1009.0
20260506015137 76 118 0.0 0.0 0.00 0.00 0.00 80 1009.0
20260506014635 77 127 0.0 1.0 0.00 0.00 0.00 79 1008.7
20260506014130 77 131 0.0 0.0 0.00 0.00 0.00 79 1008.7
20260506013629 77 135 0.0 1.0 0.00 0.00 0.00 78 1008.7
20260506013125 77 151 0.0 0.0 0.00 0.00 0.00 78 1008.4
20260506012621 78 133 0.0 0.0 0.00 0.00 0.00 77 1008.7
20260506012118 78 117 0.0 1.0 0.00 0.00 0.00 76 1008.4
20260506011616 78 162 0.0 1.0 0.00 0.00 0.00 76 1008.4
20260506011112 79 151 0.0 1.0 0.00 0.00 0.00 75 1008.4
20260506010606 79 111 0.0 0.0 0.00 0.00 0.00 74 1008.4
20260506005559 80 126 0.0 0.0 0.00 0.00 0.00 72 1008.4
20260506005055 81 125 0.0 0.0 0.00 0.00 0.00 71 1008.4
20260506004552 81 116 0.0 0.0 0.00 0.00 0.00 71 1008.4
20260506004049 81 98 0.0 1.0 0.00 0.00 0.00 70 1008.4
20260506003545 82 185 0.0 1.0 0.00 0.00 0.00 69 1008.4
20260506003042 82 143 0.0 1.0 0.00 0.00 0.00 69 1008.4
20260506002537 82 122 0.0 1.0 0.00 0.00 0.00 69 1008.4
20260506002034 82 128 0.0 1.0 0.00 0.00 0.00 68 1008.4
20260506001530 82 202 1.0 1.0 0.00 0.00 0.00 67 1008.4
20260506001027 83 200 2.0 3.0 0.00 0.00 0.00 66 1008.4
20260506000525 84 137 0.0 1.0 0.00 0.00 0.00 65 1008.7
20260506000022 84 145 0.0 2.0 0.00 0.00 0.00 65 1008.4
20260505235520 84 125 0.0 3.0 0.00 0.00 0.00 64 1008.4
20260505235016 84 153 0.0 2.0 0.00 0.00 0.00 64 1008.4
20260505234514 84 244 1.0 3.0 0.00 0.00 0.00 63 1008.4
20260505234010 84 142 1.0 4.0 0.00 0.00 0.00 63 1008.4
20260505233508 85 204 1.0 2.0 0.00 0.00 0.00 63 1008.4
20260505233005 85 96 1.0 2.0 0.00 0.00 0.00 63 1008.4
20260505232503 85 158 3.0 4.0 0.00 0.00 0.00 63 1008.4
20260505232000 84 202 1.0 2.0 0.00 0.00 0.00 64 1008.4
20260505231457 84 233 2.0 3.0 0.00 0.00 0.00 64 1008.4
20260505230955 84 188 2.0 3.0 0.00 0.00 0.00 63 1008.4
20260505230453 85 89 1.0 3.0 0.00 0.00 0.00 62 1008.4
20260505225949 85 247 1.0 2.0 0.00 0.00 0.00 62 1008.4
20260505225446 86 178 1.0 7.0 0.00 0.00 0.00 61 1008.4
20260505224942 86 217 1.0 3.0 0.00 0.00 0.00 60 1008.4
20260505224439 86 246 3.0 4.0 0.00 0.00 0.00 59 1008.4
20260505223936 85 227 3.0 8.0 0.00 0.00 0.00 60 1008.4
20260505223433 86 345 1.0 4.0 0.00 0.00 0.00 60 1008.4
20260505222929 85 327 0.0 4.0 0.00 0.00 0.00 62 1008.4
20260505222426 86 149 1.0 7.0 0.00 0.00 0.00 61 1008.4
20260505221922 86 293 1.0 4.0 0.00 0.00 0.00 59 1008.4
20260505221419 86 288 1.0 3.0 0.00 0.00 0.00 60 1008.4
20260505220916 85 238 2.0 3.0 0.00 0.00 0.00 61 1008.4
20260505220413 84 312 2.0 3.0 0.00 0.00 0.00 62 1008.4
20260505215911 84 261 3.0 4.0 0.00 0.00 0.00 62 1008.4
20260505215409 85 239 2.0 8.0 0.00 0.00 0.00 62 1008.4
20260505214907 85 114 1.0 3.0 0.00 0.00 0.00 62 1008.4
20260505214404 85 250 2.0 6.0 0.00 0.00 0.00 61 1008.4
20260505213901 86 149 3.0 4.0 0.00 0.00 0.00 60 1008.4
20260505213359 85 86 3.0 7.0 0.00 0.00 0.00 60 1008.4
20260505212854 86 184 1.0 6.0 0.00 0.00 0.00 61 1008.4
20260505212352 86 201 3.0 3.0 0.00 0.00 0.00 62 1008.4
20260505211848 86 233 4.0 7.0 0.00 0.00 0.00 59 1008.7